CZ-6A DEB, 56592

Orbit data source: Space-Track

CZ-6A DEB, 56592 is space debris in SSO originally from a launch on Fri, 11 Nov 2022 UTC launched from the Taiyaun Space Center, China (TSC). Debris objects in space refer to the collection of defunct objects orbiting the Earth. Examples of debris include non-operational satellites, rocket bodies, and fragments generated from explosions, collisions, or faulty payload assembly.

Loading next visibility...
Identifier
56592, 2022-151ADQ
Orbit
SSO
Country
Flag of CNCN / PRC
Related business
Manufacturer
SAST
Mission
Spacecraft
Bus & Motor
Unknown
Mass
Unknown
Launch date (UTC)
2022-11-11 (4 years ago)
Launch vehicle
Unknown
Launch site
Taiyaun Space Center, China (TSC)
Object type
Payload
Rocket body
Debris
Shape & HBR
Unknown shape, 0.1 m
Radar Cross Section
Small (<0.1 m²)

Expand to show TLE details & history
Last TLE update: 3 days ago

TLE from 3 days ago
0 CZ-6A DEB
1 56592U 22151ADQ 26170.48663852  .00001813  00000-0  85398-3 0  9995
2 56592  98.8142 182.9223 0031282 297.0512  62.7473 14.20926735174415
Epoch: 2026-06-19T11:40Z
TLE epoch observation values (Epoch: 2026-06-19T11:40:45.568Z)
Latitude
-0.00002°
Longitude
100.01752°
Altitude
814.872 km
Speed
7.451 km/s
True Right ascension
12h 11m 41s
True Declination
0° 00' 00"
Sunlit
Object was in daylight at epoch
Visualization orbit readout
Latitude
Unknown
Longitude
Unknown
Altitude
Unknown
Speed
Unknown
Apparent Right ascension
Unknown
Apparent Declination
Unknown
Sunlit
N/A
Visualization observer readout
Local Sidereal Time
21:24:20
Azimuth
Unknown
Elevation
Unknown
Doppler factor
Unknown
Orbital elements
Apogee altitude
841.898 km
Perigee altitude
796.867 km
Semi-major axis
7,197.52 km
Eccentricity
0.00313
Inclination
98.8142°
RAAN
182.9223°
Arg. of periapsis
297.0512°
True anomaly
63.06654°
Mean anomaly
62.7473°
Eccentric anomaly
62.90686°
Mean motion
3.55442 °/min
Orbital period
101.28 mins
BSTAR
0.00085398
Loading maneuver chart data...
Computing Atmospheric mass density...
Loading historical data...
Loading historical data...
Loading historical data...
Loading historical data...
Loading historical data...
Loading historical data...
Loading historical data...

Documentation

Showing up to 5 results
|